www.pogodaiklimat.ru

Погода и климат >> Архив погоды >> Россия >> Камчатский край >> Мильково


ПОГОДА в Мильково

  • Прогноз погоды в Мильково
  • Монитор погоды в Мильково

АРХИВ ПОГОДЫ в Мильково

Время (UTC), дата Ветер
(напр.,м/с)
 
Видим.   Явления Облачность Т
(С)
Тd
(С)
f
(%)
Тe
(С)
Тes
(С)
Комфортность P
(гПа)
Po
(гПа)
Тmin
(С)
Tmax
(С)
R
(мм)
R24
(мм)
S
(см)
06 17.07 Ю 1 50 км 6/3 1000 м
[Sc Ac trans Ci fib]
+27.9 +9.7 32 +28 +31 жарко 1009.7 990.7
09 17.07 СЗ 1 50 км 4/3 1000 м
[Sc Ci fib]
+23.0 +9.7 43 +25 +25 комфорт 1010.0 990.7 +29.2
12 17.07 З 1 20 км 3/0
[Ci fib]
+14.9 +10.7 76 +15 +15 1013.2 993.3
15 17.07 З 1 20 км 3/0
[Ci fib]
+12.3 +9.3 82 +12 +12 1013.4 993.3
18 17.07 штиль 0 50 км 6/3 1000 м
[Sc Ci fib]
+9.3 +7.7 90 +8 +9 1013.6 993.3
21 17.07 штиль 0 50 км 6/0
[Ac trans Ci fib]
+16.7 +11.3 70 +17 +22 1012.7 993.0 +9.2
00 18.07 штиль 0 50 км 10/0
[Ci fib]
+23.0 +12.0 50 +26 +41 жарко 1011.3 992.0
03 18.07 штиль 0 50 км 10 баллов +26.4 +10.1 36 +27 +27 жарко 1011.1 992.0
06 18.07 штиль 0 50 км 10/0
[Ci]
+26.0 +10.6 38 +27 +27 жарко 1011.1 992.0
09 18.07 ЮЗ 1 50 км 8/0
[Ci fib]
+21.2 +11.8 55 +23 +23 комфорт 1012.7 993.3 +27.5
12 18.07 штиль 0 20 км 6/1 1000 м
[Sc Ci fib]
+14.6 +11.9 84 +14 +14 1015.9 996.0
15 18.07 З 1 20 км 4 балла +12.4 +9.9 85 +12 +12 1016.1 996.0
18 18.07 штиль 0 50 км 6/3 1000 м
[Sc Ci fib]
+11.7 +9.9 89 +11 +11 1017.5 997.3
21 18.07 штиль 0 50 км 10/3 1000 м
[Sc Ci fib]
+18.8 +13.0 69 +20 +24 1016.5 996.8 +11.2
00 19.07 ЮЗ 2 50 км 6/3 1000 м
[Cu med, cong Ci fib]
+24.3 +13.9 52 +27 +36 жарко 1016.2 996.9
03 19.07 штиль 0 50 км 4/3 1000 м
[Cu med, cong Ci fib]
+26.7 +12.7 42 +28 +39 жарко 1016.4 997.3
06 19.07 ЮЗ 2 50 км 3/1 1000 м
[Cu med, cong Ci fib]
+26.2 +13.3 45 +28 +32 жарко 1016.5 997.3
09 19.07 ЮЗ 1 50 км 1/1 1000 м
[Sc diur, vesp]
+21.8 +14.9 65 +25 +25 комфорт 1018.2 998.7 +27.4
12 19.07 штиль 0 20 км 3/3 1000 м
[Sc]
+16.7 +13.0 79 +17 +17 1019.9 1000.0
15 19.07 З 1 20 км 10/5 1000 м
[Sc Ac trans]
+14.4 +12.4 88 +15 +15 1020.0 1000.0
18 19.07 З 1 50 км 6/3 1000 м
[Sc Ci fib]
+13.5 +11.7 89 +14 +14 1020.1 1000.0
21 19.07 СВ 1 50 км 3/1 1000 м
[Sc Ci fib]
+20.0 +13.0 64 +23 +29 комфорт 1018.0 998.4 +13.5
00 20.07 ЮЗ 3 50 км 10/6 1000 м
[Sc Ci sp]
+20.0 +12.3 61 +22 +26 комфорт 1017.0 997.4
03 20.07 ЮЗ 3
{10}
50 км осадки на расстоянии 10/6 1000 м
[Cb cap Ac trans]
+19.4 +13.4 68 +21 +23 комфорт 1016.6 997.0
06 20.07 ЮЗ 4
{10}
20 км слаб. ливневой дождь 10/8 1000 м
[Cb cap Ac trans]
+18.6 +14.6 78 +19 +20 1015.8 996.1
09 20.07 ЮЗ 4
{10}
20 км слаб. ливневой дождь 10/8 1000 м
[Cb cap Ci sp]
+18.5 +12.9 70 +19 +19 1015.7 996.0 +22.6 2
12 20.07 ЮЗ 3 20 км {ливн. осадки} 10/6 1000 м
[Cb cap Ci sp]
+17.5 +11.8 69 +18 +18 1015.3 995.6
15 20.07 ЮЗ 2 20 км 10/6 1000 м
[Cb cap Ci fib]
+16.2 +11.8 75 +16 +16 1015.8 996.0
18 20.07 З 1 20 км осадки на расстоянии 10/6 1000 м
[Cb cap Ci fib]
+16.0 +12.0 77 +17 +17 1015.8 996.0
21 20.07 ЮЗ 3 50 км 10/6 1000 м
[Cb cap Ci sp]
+18.4 +12.8 70 +19 +21 1013.8 994.2 +15.6 0.0
00 21.07 ЮЗ 3
{11}
50 км 8/5 1000 м
[Sc diur, vesp Ci sp]
+20.6 +13.4 63 +23 +28 комфорт 1011.4 991.9
03 21.07 ЮЗ 4-10
{14}
50 км слаб. ливневой дождь 10/8 1000 м
[Cb cap Ac trans]
+19.2 +13.0 67 +20 +21 1009.3 989.8
06 21.07 ЮЗ 5-13
{13}
50 км осадки на расстоянии {ливн. осадки} 10/6 1000 м
[Cb cap Ac trans Ci sp]
+18.9 +12.0 64 +19 +20 1007.7 988.2
09 21.07 З 1
{14}
20 км слаб. ливневой дождь 10/10 600 м
[Cb cap]
+13.7 +11.4 86 +14 +14 1011.9 992.0 +21.1 0.7
12 21.07 З 1 10 км слаб. ливневой дождь 10/10 600 м
[Cb cap]
+13.1 +10.0 81 +13 +13 1010.4 990.4
15 21.07 штиль 0 н/о н/о +12.1 +9.5 84 +12 +12 1012.0 992.0
18 21.07 СЗ 1 50 км {ливн. осадки} 6/6 1000 м
[Sc]
+10.5 +7.4 81 +10 +10 1012.2 992.0
21 21.07 ЮЗ 1 50 км 8/5 1000 м
[Cb cap Ci sp]
+14.3 +9.9 75 +15 +18 1011.1 991.3 +8.7 0.5
00 22.07 Ю 1 50 км 5/5 1000 м
[Cb calv]
+18.7 +9.5 55 +20 +28 1009.5 990.0
03 22.07 З 1 50 км 3/3 1000 м
[Cu med, cong]
+21.1 +7.3 41 +22 +35 комфорт 1008.7 989.3
06 22.07 ЮВ 2 50 км 1/1 1000 м
[Cu med, cong]
+21.6 +6.7 38 +22 +27 комфорт 1007.3 988.0
09 22.07 СВ 1 50 км 6/6 1000 м
[Sc diur, vesp]
+17.8 +8.9 56 +19 +19 1008.9 989.3 +22.4
12 22.07 С 2 20 км 4/4 1000 м
[Sc]
+13.0 +7.4 69 +12 +12 1010.7 990.7
15 22.07 СЗ 1 20 км 10/4 1000 м
[Sc Ci sp]
+11.1 +7.2 77 +11 +11 1010.8 990.7
18 22.07 Ю 1 50 км 10/5 1000 м
[Sc Ac trans]
+9.0 +7.4 90 +8 +8 1011.0 990.7
21 22.07 штиль 0 50 км 10/6 1000 м
[Sc Ac trans]
+12.7 +8.5 76 +12 +13 1009.9 990.0 +8.9
00 23.07 штиль 0 50 км 10/6 1000 м
[Sc Ac trans Ci sp]
+16.0 +9.6 66 +16 +20 1009.1 989.4
03 23.07 ЮЗ 1 50 км 10 баллов +18.1 +8.1 52 +19 +19 1008.9 989.3
06 23.07 Ю 2 50 км 10 баллов +17.8 +8.9 56 +18 +18 1008.9 989.3
09 23.07 штиль 0 50 км 10/8 1000 м
[Sc Ac trans]
+15.5 +10.7 73 +15 +15 1009.0 989.3 +18.2
12 23.07 штиль 0 20 км 10 баллов +13.0 +9.8 81 +13 +13 1009.2 989.3
15 23.07 З 1 10 км слаб. ливневой дождь 10/10 1000 м
[Cb cap]
+11.5 +10.1 91 +11 +11 1009.3 989.3
18 23.07 штиль 0 10 км слаб. ливневой дождь 10 баллов +10.9 +9.7 92 +10 +10 1009.4 989.3
21 23.07 СВ 2 10 км слаб. ливневой дождь 10/10 600 м
[Cb cap]
+10.7 +9.2 90 +9 +9 1008.4 988.4 +10.7 4
00 24.07 СВ 3 10 км слаб. ливневой дождь 10/10 300 м
[Cb cap]
+11.3 +8.8 85 +9 +9 1007.8 987.8
03 24.07 С 2 10 км слаб. ливневой дождь 10 баллов +11.3 +8.2 81 +10 +10 1008.0 988.0

 

Местоположение метеостанции Мильково (Камчатский край, Россия): широта 54.68 долгота 158.50 высота над уровнем моря 168 м.

В архиве по умолчанию представлена погода в Мильково за последнюю неделю. Архивные данные за месяц целиком и за предыдущие месяцы, начиная с января 2011 года, Вы можете получить, выбрав интересующий диапазон дат из раскрывающегося списка и нажав кнопку "Ввод!".


*Определитесь, кто Вы:
робот инопланетянин человек

Внимание! Время в таблицах - всемирное. Для получения местного времени необходимо прибавить поправку, которая равна 12 ч.

Смотрите также архив погоды в соседних городах и на ближайших метеорологических станциях:

Погода в Долиновке (Камчатский край, Россия) (58 км)
Погода в Пущино (Камчатский край, Россия) (64 км)
Погода в Семячике (Камчатский край, Россия) (110 км)
Погода в Эссо (Камчатский край, Россия) (140 км)
Погода в Козыревске (Камчатский край, Россия) (173 км)
Погода в Соболево (Камчатский край, Россия) (173 км)
Погода в Петропавловск-Камч. 2 (Камчатский край, Россия) (178 км)
Погода в Сосновке (Камчатский край, Россия) (178 км)
Погода в Начиках (Камчатский край, Россия) (181 км)
Погода в Петропавловском Маяке (Камчатский край, Россия) (201 км)

Пояснения к столбцам:

Ветер - указаны скорость ветра в м/с - средняя за 10 мин, порывы в срок и между сроками (в фигурных скобках) и направление, откуда дует ветер: С - северный, СВ - северо-восточный, В - восточный, ЮВ - юго-восточный, Ю - южный, ЮЗ - юго-западный, З - западный, СЗ - северо-западный.
Видимость - горизонтальная дальность видимости в метрах или километрах. При видимости от 1 до 10 км при отсутствии осадков обычно наблюдается дымка, при ухудшении видимости до 1 км и менее - туман. В сухую погоду видимость может ухудшаться дымом, пылью или мглою.
Явления - указаны атмосферные явления, наблюдавшиеся в срок или в последний час перед сроком; фигурными скобками обозначены явления, наблюдавшиеся между сроками (за 1-3 часа до срока); квадратными скобками обозначены град или гололедные отложения с указанием их диаметра в мм.
Облачность - указаны через наклонную черту общая и нижняя облачность в баллах и высота нижней границы облаков в метрах; квадратными скобками обозначены формы облаков: Ci - перистые, Cs - перисто-слоистые, Cc - перисто-кучевые, Ac - высококучевые, As - высокослоистые, Sc - слоисто-кучевые, Ns - слоисто-дождевые, Cu - кучевые, Cb - кучево-дождевые. Подробнее классификацию облаков см. в Атласе облаков (PDF).
T - Температура воздуха - температура, измеренная на высоте 2 м над землей.
Td - Температура точки росы - температура, при понижении до которой содержащийся в воздухе водяной пар достигнет насыщения.
f - Относительная влажность воздуха - влажноcть воздуха, измеренная на высоте 2 м над землей.
Te - Эффективная температура - температура, которую ощущает одетый по сезону человек в тени. Характеристика душности погоды. При расчете учитывается влияние влажности воздуха и скорости ветра на теплоощущения человека.
Tes - Эффективная температура на солнце - температура, которую ощущает человек, с поправкой на солнечный нагрев. Характеристика знойности погоды. Зависит от высоты солнца над горизонтом, облачности и скорости ветра. Ночью, в пасмурную погоду, а также при ветре 12 м/с и более поправка равна нулю.
P - Атмосферное давление - приведенное к уровню моря атмосферное давление.
Po - Атмосферное давление - измеренное на уровне метеостанции атмосферное давление.
Tmin - Минимальная температура - минимум температуры воздуха на высоте 2 м над землей.
Tmax - Максимальная температура - максимум температуры воздуха на высоте 2 м над землей.
R - Количество осадков - Количество выпавших осадков за период времени, мм. При наведении курсора мыши на число - период времени, за который выпало указанное количество осадков.
R24 - Количество осадков - Количество выпавших осадков за 24 часа, мм.
S - Снежный покров - Высота снежного покрова, см. При наведении курсора мыши на число - состояние снежного покрова и степень покрытия местности в баллах.